Lid_Strength_Index
4 5 5 5 5 5 5 5 5 5 5 5 5 4 4 4 4 5 5 5 5 5 4 5 5 5 4 7 7 3 1 -1 3 3 5 5 6 5 7 5 5 5 5 4 4 4 4
5 5 4 5 5 5 5 5 5 5 5 5 5 4 4 4 4 5 5 5 5 5 5 4 4 5 6 11 5 3 2 1 4 4 5 5 5 4 5 5 5 4 4 5 4 5 4
5 5 5 5 5 5 5 5 5 5 5 5 4 4 4 4 4 4 4 5 4 4 4 4 3 4 6 8 5 3 2 4 4 4 5 4 4 5 5 6 4 4 6 5 5 5 6
6 5 5 5 5 5 5 5 5 5 4 4 4 4 4 4 4 4 4 4 4 3 3 3 3 3 7 4 4 4 3 4 3 3 4 3 4 4 5 4 5 6 6 9 6 6 5
5 5 5 5 5 5 5 5 5 5 4 4 4 4 4 4 4 3 3 3 3 3 2 2 3 4 7 5 7 5 3 5 5 4 4 4 4 5 5 7 8 7 9 8 7 5 6
5 5 5 5 5 5 5 4 5 4 4 3 3 3 4 3 3 3 3 3 1 2 2 2 3 7 6 8 7 6 3 3 5 7 7 7 6 7 6 7 11 10 9 8 9 7 6
6 5 6 5 5 5 5 4 4 4 4 3 3 3 3 3 3 3 2 0 3 4 3 6 6 7 8 5 4 5 4 4 5 7 10 7 9 10 8 7 7 7 8 8 7 6 7
6 5 5 5 5 5 5 5 4 5 4 3 3 3 2 3 3 2 1 3 5 5 8 5 5 5 6 5 7 6 4 6 7 9 8 9 10 8 6 6 7 7 8 9 7 6 7
6 5 5 5 5 5 5 5 4 4 4 3 3 2 2 2 2 1 3 3 2 2 9 6 5 6 6 6 7 7 6 5 7 8 9 10 9 7 7 7 8 8 8 8 8 8 7
6 6 5 5 5 5 6 5 4 4 4 3 3 2 1 1 2 1 2 1 1 2 10 8 7 5 5 6 9 5 5 5 7 8 8 8 7 8 8 8 7 9 7 7 8 9 12
6 6 5 5 5 5 6 5 5 4 3 3 2 1 1 2 2 3 2 1 1 3 18 9 7 2 5 7 7 7 4 6 8 8 7 9 8 9 9 8 7 8 6 7 7 9 9
6 5 5 6 5 5 6 5 4 4 3 2 1 1 1 0 -0 0 0 -0 1 12 17 9 6 7 7 7 7 7 7 5 5 7 7 8 6 7 8 7 6 6 7 7 8 9 14
6 5 6 5 5 5 5 5 4 4 3 2 1 1 1 -0 2 -1 -1 2 12 15 8 10 9 7 8 8 8 8 9 9 10 11 11 9 8 7 6 8 6 7 9 13 14 15 15
6 6 6 6 5 5 5 4 4 3 2 1 1 1 -0 -0 -2 -2 1 7 15 10 10 7 8 8 9 8 8 8 9 10 8 9 9 11 12 9 7 8 9 8 9 13 17 16 13
6 6 6 6 5 5 4 4 4 2 1 1 1 -1 -0 -1 -2 -1 5 14 12 9 8 8 8 9 9 8 8 8 9 9 8 8 11 10 11 7 7 7 6 8 10 8 11 10 12
6 6 6 6 6 5 4 4 4 3 2 1 2 1 2 -1 -3 1 7 11 9 7 7 7 10 9 11 10 9 9 9 8 8 7 6 8 11 7 8 7 6 7 7 11 11 18 16
6 6 6 6 5 5 5 4 3 3 2 1 1 3 1 -2 -1 4 11 10 8 6 6 8 9 10 10 11 9 9 9 7 6 6 6 7 9 9 7 9 10 9 9 9 9 10 15
6 6 6 6 6 5 5 4 3 2 2 2 3 6 1 -1 7 6 9 8 7 7 5 7 6 7 9 9 10 9 10 8 6 6 8 7 8 11 10 7 6 7 8 8 15 16 12
6 6 6 6 6 5 4 4 3 3 2 3 5 5 1 1 10 9 7 7 7 7 7 7 8 7 7 9 12 10 10 6 6 7 8 7 9 12 11 9 7 8 8 8 8 9 13
6 6 6 6 6 5 4 3 3 3 2 2 5 9 5 4 5 7 9 9 9 6 7 7 8 7 8 9 8 10 10 7 6 6 7 7 8 10 13 10 9 10 9 8 9 12 12
6 6 6 6 6 6 4 3 3 2 2 2 5 8 7 9 8 7 8 9 10 10 7 6 8 8 9 11 10 11 9 8 7 7 6 7 10 9 9 8 8 9 9 8 9 9 11
6 6 6 6 6 6 5 3 2 2 2 4 7 8 7 7 7 8 8 9 10 10 9 9 9 9 8 10 10 11 9 10 11 8 8 7 11 9 11 8 9 10 8 8 8 8 8
6 6 6 5 6 5 5 4 3 2 2 5 4 4 7 8 8 9 9 9 10 8 8 8 8 9 9 8 8 7 7 7 8 10 10 10 12 11 13 9 9 12 9 8 8 7 8
6 6 6 5 6 5 5 4 3 2 2 3 4 4 7 9 8 9 9 9 9 9 10 8 7 9 7 5 5 5 6 7 7 8 9 11 11 12 14 10 17 9 6 7 8 7 6
6 6 6 5 5 4 4 4 3 2 2 2 2 3 5 8 6 7 8 8 7 7 8 8 7 6 5 6 9 10 10 10 11 9 9 9 11 14 15 14 10 9 7 8 8 9 6
6 6 5 5 5 4 3 3 3 2 1 0 1 -1 2 7 7 5 6 6 8 8 8 7 5 4 5 8 10 14 14 11 14 12 9 9 9 13 14 16 16 10 7 5 6 11 6
6 6 5 5 4 4 3 2 2 2 1 -0 -0 -2 1 6 3 4 6 6 4 6 8 7 7 7 5 9 11 12 12 9 13 14 14 13 13 15 15 15 12 8 6 5 11 10 6
5 5 5 5 4 3 3 2 1 1 0 -1 -0 -2 1 4 3 2 2 4 5 5 8 6 7 7 7 10 10 11 11 11 11 11 13 14 14 15 15 16 17 7 7 10 8 6 5
5 5 5 4 4 3 3 2 1 0 -1 -2 1 -2 -1 3 3 0 1 0 1 2 4 4 6 7 6 9 9 8 10 10 11 14 9 14 12 14 12 14 8 6 6 5 4 5 5